Location: Lesignano de� Bagni
(44.6500°N, 10.3000°E)
Time: 12:00:33
(UTC+00:00)

Cosmos 1959 Rocket - Pass Details

Date: 03 March 2021
Orbit: 948 x 996 km, 83.0° (Epoch: 17 April)

Event Time Altitude Azimuth Distance (km) Brightness Sun altitude
Rises 19:09:17 0° 184° (S) 3,608 7.4 -22.0°
Reaches altitude 10° 19:11:46 10° 184° (S) 2,665 6.7 -22.4°
Maximum altitude 19:17:51 86° 98° (E) 957 4.3 -23.5°
Drops below altitude 10° 19:24:00 10° 9° (N) 2,687 6.9 -24.5°
Sets 19:26:30 0° 9° (N) 3,641 7.6 -25.0°
